Torna al catalogo

STARLINK-31815

AttivoComunicazioniVLEO
NORAD 59801·PAYLOAD·🇺🇸 United States

Lanciato May 18, 2024 da Cape Canaveral Space Force Station

Loading…

Prossimi Passaggi (prossime 24 ore)

TLE

AggiornatoSource: CelesTrak SupGP

Epoca: Sep 14, 2026, 21:08 UTC

1 59801C 24093V   26257.88104167  .00029026  00000+0  10514-2 0  2576
2 59801  42.9994 220.5811 0001262 257.8559 263.8539 15.27561707    11

Traccia STARLINK-31815 in tempo reale con AllMySat

Download on the App Store